GW2011 Weather Reports


Display with metric or nautical units.
time (UTC)temp
F
wind
direction
speed
MPH
gust
MPH
rain 1hr
in
rain 24hr
in
rain mn
in
humidity
%
barometer
mb
20260504050516 56 243 7.0 11.0 0.00 0.00 0.00 46 996.7
20260504045514 56 232 8.0 12.0 0.00 0.00 0.00 46 997.0
20260504045013 56 254 6.0 10.0 0.00 0.00 0.00 46 997.1
20260504044533 56 247 6.0 10.0 0.00 0.00 0.00 46 997.2
20260504044015 56 252 4.0 9.0 0.00 0.00 0.00 48 997.3
20260504043515 56 242 5.0 9.0 0.00 0.00 0.00 49 997.4
20260504043043 56 238 4.0 8.0 0.00 0.00 0.00 50 997.5
20260504042515 55 223 3.0 7.0 0.00 0.00 0.00 51 997.6
20260504042012 54 232 2.0 5.0 0.00 0.00 0.00 53 997.6
20260504041536 54 246 1.0 4.0 0.00 0.00 0.00 55 998.0
20260504041014 53 244 1.0 3.0 0.00 0.00 0.00 55 998.1
20260504040512 52 267 0.0 1.0 0.00 0.00 0.00 55 998.1
20260504040032 52 267 0.0 0.0 0.00 0.00 0.00 56 998.2
20260504035511 53 0 0.0 0.0 0.00 0.00 0.00 57 998.5
20260504035014 52 0 0.0 2.0 0.00 0.00 0.00 59 998.6
20260504034534 52 0 0.0 2.0 0.00 0.00 0.00 53 998.7
20260504034018 51 267 1.0 2.0 0.00 0.00 0.00 54 998.8
20260504033513 50 0 0.0 2.0 0.00 0.00 0.00 57 998.9
20260504033034 50 0 0.0 2.0 0.00 0.00 0.00 61 999.0
20260504032514 50 0 0.0 2.0 0.00 0.00 0.00 72 999.0
20260504032015 51 266 0.0 2.0 0.00 0.00 0.00 70 999.3
20260504031535 51 0 0.0 2.0 0.00 0.00 0.00 67 999.5
20260504031018 52 267 0.0 1.0 0.00 0.00 0.00 60 999.4
20260504030514 52 0 0.0 1.0 0.00 0.00 0.00 65 999.5
20260504030034 53 0 0.0 0.0 0.00 0.00 0.00 63 999.5
20260504025514 53 0 0.0 2.0 0.00 0.00 0.00 65 999.7
20260504025014 54 0 0.0 2.0 0.00 0.00 0.00 63 999.8
20260504024535 54 0 0.0 1.0 0.00 0.00 0.00 62 999.9
20260504024011 55 0 0.0 1.0 0.00 0.00 0.00 60 999.8
20260504023511 55 0 0.0 1.0 0.00 0.00 0.00 48 999.9
20260504023030 56 0 0.0 2.0 0.00 0.00 0.00 55 1000.0
20260504022511 57 0 0.0 2.0 0.00 0.00 0.00 56 1000.0
20260504022013 58 0 0.0 1.0 0.00 0.00 0.00 50 1000.1
20260504021533 58 0 0.0 1.0 0.00 0.00 0.00 51 1000.2
20260504021011 59 0 0.0 2.0 0.00 0.00 0.00 48 1000.3
20260504020512 60 0 0.0 2.0 0.00 0.00 0.00 46 1000.3
20260504020032 61 267 0.0 2.0 0.00 0.00 0.00 37 1000.4
20260504015512 61 267 0.0 2.0 0.00 0.00 0.00 36 1000.5
20260504015012 61 267 1.0 2.0 0.00 0.00 0.00 36 1000.3
20260504014538 62 267 1.0 3.0 0.00 0.00 0.00 37 1000.3
20260504014014 62 267 1.0 3.0 0.00 0.00 0.00 36 1000.5
20260504013511 62 267 1.0 3.0 0.00 0.00 0.00 37 1000.5
20260504013033 62 272 2.0 6.0 0.00 0.00 0.00 35 1000.5
20260504012514 63 265 2.0 6.0 0.00 0.00 0.00 36 1000.6
20260504012014 63 265 2.0 6.0 0.00 0.00 0.00 39 1000.5
20260504011537 63 257 3.0 6.0 0.00 0.00 0.00 37 1000.7
20260504011012 64 263 3.0 6.0 0.00 0.00 0.00 36 1000.7
20260504010515 64 273 3.0 6.0 0.00 0.00 0.00 36 1000.7
20260504010038 64 269 2.0 7.0 0.00 0.00 0.00 34 1000.7
20260504005514 65 268 3.0 7.0 0.00 0.00 0.00 34 1000.8
20260504005018 65 270 2.0 7.0 0.00 0.00 0.00 34 1000.8
20260504004534 65 264 3.0 7.0 0.00 0.00 0.00 33 1001.0
20260504004017 65 275 3.0 8.0 0.00 0.00 0.00 34 1000.9
20260504003515 65 244 4.0 10.0 0.00 0.00 0.00 32 1001.0
20260504003037 65 259 4.0 10.0 0.00 0.00 0.00 34 1000.9
20260504002514 65 267 3.0 10.0 0.00 0.00 0.00 35 1001.0
20260504002016 65 271 4.0 9.0 0.00 0.00 0.00 36 1001.0
20260504001540 65 272 5.0 9.0 0.00 0.00 0.00 33 1001.1
20260504001014 65 275 3.0 8.0 0.00 0.00 0.00 34 1001.0
20260504000514 65 265 4.0 8.0 0.00 0.00 0.00 34 1001.1
20260504000032 65 262 4.0 8.0 0.00 0.00 0.00 36 1001.2
20260503235516 65 248 3.0 8.0 0.00 0.00 0.00 34 1001.2
20260503235014 65 261 3.0 6.0 0.00 0.00 0.00 37 1001.1
20260503234532 65 275 2.0 7.0 0.00 0.00 0.00 34 1001.2
20260503234015 66 261 3.0 7.0 0.00 0.00 0.00 31 1001.4
20260503233515 66 306 3.0 8.0 0.00 0.00 0.00 30 1001.4
20260503233036 66 288 3.0 9.0 0.00 0.00 0.00 31 1001.4
20260503232516 66 306 4.0 13.0 0.00 0.00 0.00 33 1001.4
20260503232014 65 265 6.0 13.0 0.00 0.00 0.00 35 1001.5
20260503231534 65 258 5.0 9.0 0.00 0.00 0.00 36 1001.5
20260503231017 66 264 5.0 11.0 0.00 0.00 0.00 34 1001.5
20260503230517 66 265 4.0 11.0 0.00 0.00 0.00 32 1001.6
20260503230034 66 267 5.0 10.0 0.00 0.00 0.00 35 1001.7
20260503225517 66 252 6.0 10.0 0.00 0.00 0.00 32 1001.7
20260503225018 66 265 6.0 10.0 0.00 0.00 0.00 34 1001.6
20260503224537 67 255 4.0 10.0 0.00 0.00 0.00 31 1001.7
20260503224015 67 255 5.0 13.0 0.00 0.00 0.00 32 1001.8
20260503223517 67 313 5.0 14.0 0.00 0.00 0.00 30 1001.7
20260503223033 67 257 7.0 14.0 0.00 0.00 0.00 31 1002.0
20260503222515 67 263 6.0 12.0 0.00 0.00 0.00 30 1002.0
20260503222015 67 293 5.0 10.0 0.00 0.00 0.00 31 1002.1
20260503221533 67 254 5.0 11.0 0.00 0.00 0.00 29 1002.1
20260503221014 68 265 4.0 11.0 0.00 0.00 0.00 29 1002.1
20260503220514 68 288 3.0 9.0 0.00 0.00 0.00 29 1002.3
20260503220032 68 256 2.0 9.0 0.00 0.00 0.00 29 1002.4
20260503215511 68 265 3.0 11.0 0.00 0.01 0.00 27 1002.4
20260503215013 68 301 3.0 11.0 0.00 0.01 0.00 29 1002.4
20260503214531 68 270 3.0 7.0 0.00 0.01 0.00 31 1002.4
20260503214012 68 286 3.0 8.0 0.00 0.01 0.00 29 1002.6
20260503213513 68 352 3.0 10.0 0.00 0.01 0.00 30 1002.5
20260503213033 67 290 4.0 11.0 0.00 0.01 0.00 30 1002.7
20260503212512 67 269 4.0 11.0 0.00 0.01 0.00 34 1002.5
20260503212013 67 255 7.0 14.0 0.00 0.01 0.00 32 1002.7
20260503211532 67 355 5.0 14.0 0.00 0.01 0.00 32 1002.6
20260503211014 67 251 3.0 12.0 0.00 0.01 0.00 28 1002.6
20260503210514 67 288 4.0 12.0 0.00 0.01 0.00 32 1002.8
20260503210034 67 268 6.0 10.0 0.00 0.01 0.00 31 1002.7
20260503205514 67 225 1.0 9.0 0.00 0.01 0.00 32 1002.8
20260503205015 67 275 3.0 15.0 0.00 0.01 0.00 31 1003.0
20260503204533 66 246 7.0 15.0 0.00 0.01 0.00 33 1003.0
20260503204017 67 272 4.0 11.0 0.00 0.01 0.00 32 1003.0
20260503203514 67 297 6.0 11.0 0.00 0.01 0.00 30 1003.2
20260503203032 67 346 4.0 14.0 0.00 0.01 0.00 30 1003.2
20260503202513 67 265 5.0 14.0 0.00 0.01 0.00 29 1003.4
20260503202016 67 286 2.0 11.0 0.00 0.01 0.00 31 1003.4
20260503201532 66 296 6.0 11.0 0.00 0.01 0.00 33 1003.5
20260503201011 67 304 4.0 9.0 0.00 0.01 0.00 30 1003.5
20260503200514 67 248 4.0 9.0 0.00 0.01 0.00 33 1003.6
20260503200032 67 252 3.0 11.0 0.00 0.01 0.00 32 1003.6
20260503195513 67 277 7.0 11.0 0.00 0.01 0.00 30 1003.6
20260503195014 67 258 3.0 10.0 0.00 0.01 0.00 31 1003.8
20260503194533 68 342 2.0 10.0 0.00 0.01 0.00 29 1003.7
20260503194013 67 249 2.0 6.0 0.00 0.01 0.00 30 1003.9
20260503193511 67 291 2.0 10.0 0.00 0.01 0.00 29 1003.9
20260503193037 67 30 6.0 10.0 0.00 0.01 0.00 31 1003.9
20260503192514 67 273 2.0 9.0 0.00 0.01 0.00 31 1003.9
20260503192014 67 312 5.0 9.0 0.00 0.01 0.00 34 1003.9
20260503191538 68 275 3.0 8.0 0.00 0.01 0.00 30 1004.0
20260503191016 67 277 1.0 8.0 0.00 0.01 0.00 31 1004.0
20260503190515 67 348 3.0 8.0 0.00 0.01 0.00 30 1004.0
20260503190032 67 294 3.0 9.0 0.00 0.01 0.00 32 1004.3
20260503185515 67 262 5.0 9.0 0.00 0.01 0.00 30 1004.4
20260503185016 67 292 3.0 8.0 0.00 0.01 0.00 29 1004.3
20260503184534 67 336 2.0 8.0 0.00 0.01 0.00 30 1004.4
20260503184016 67 346 1.0 7.0 0.00 0.01 0.00 33 1004.4
20260503183514 67 292 3.0 8.0 0.00 0.01 0.00 30 1004.7
20260503183034 67 343 3.0 10.0 0.00 0.01 0.00 28 1004.7
20260503182517 67 55 3.0 10.0 0.00 0.01 0.00 30 1004.8
20260503182013 67 314 2.0 9.0 0.00 0.01 0.00 30 1004.7
20260503181533 67 46 2.0 9.0 0.00 0.01 0.00 32 1004.8
20260503181015 66 39 2.0 7.0 0.00 0.01 0.00 33 1004.9
20260503180518 66 313 2.0 8.0 0.00 0.01 0.00 30 1004.9
20260503180043 66 278 2.0 9.0 0.00 0.01 0.00 30 1004.9
20260503175515 66 46 2.0 9.0 0.00 0.01 0.00 30 1004.9
20260503175013 66 297 4.0 9.0 0.00 0.01 0.00 28 1004.9
20260503174535 66 337 1.0 7.0 0.00 0.01 0.00 34 1004.7
20260503174015 66 300 2.0 7.0 0.00 0.01 0.00 34 1004.9
20260503173517 66 13 1.0 7.0 0.00 0.01 0.00 33 1005.0
20260503173037 66 323 2.0 7.0 0.00 0.01 0.00 33 1005.1
20260503172514 66 339 2.0 6.0 0.00 0.01 0.00 34 1005.0
20260503172016 66 300 3.0 6.0 0.00 0.01 0.00 35 1005.1
20260503171532 65 65 1.0 6.0 0.00 0.01 0.00 38 1005.1
20260503171015 65 189 2.0 7.0 0.00 0.01 0.00 35 1005.3
20260503170516 65 340 2.0 7.0 0.00 0.01 0.00 37 1005.1
20260503150515 61 32 2.0 5.0 0.00 0.01 0.00 47 1005.3
20260503131019 51 321 0.0 3.0 0.00 0.01 0.00 63 1004.7
20260503130519 51 311 0.0 3.0 0.00 0.01 0.00 64 1004.6
20260503110516 47 308 1.0 4.0 0.00 0.01 0.00 67 1002.5
20260503081532 50 280 1.0 3.0 0.00 0.01 0.00 66 1001.7
20260503081014 50 280 1.0 2.0 0.00 0.01 0.00 65 1001.8
20260503080516 50 280 0.0 2.0 0.00 0.01 0.00 67 1001.7
20260503072515 53 273 2.0 4.0 0.00 0.01 0.00 61 1001.8
20260503072015 53 264 2.0 4.0 0.00 0.01 0.00 60 1001.9